FW1023 Weather Reports


Display with metric or nautical units.
time (UTC)temp
F
wind
direction
speed
MPH
gust
MPH
rain 1hr
in
rain 24hr
in
rain mn
in
humidity
%
barometer
mb
20260507155239 65 180 2.0 4.0 0.00 0.71 0.71 85 1000.7
20260507154729 66 225 1.0 6.0 0.00 0.71 0.71 84 1001.5
20260507153708 66 270 2.0 7.0 0.00 0.71 0.71 84 1000.6
20260507153159 66 158 3.0 7.0 0.00 0.71 0.71 84 1000.0
20260507152648 65 135 2.0 7.0 0.00 0.71 0.71 85 1000.0
20260507152138 65 135 2.0 6.0 0.00 0.71 0.71 87 999.8
20260507151628 64 248 2.0 4.0 0.00 0.71 0.71 89 999.8
20260507151118 64 203 2.0 4.0 0.00 0.71 0.71 90 1000.1
20260507150608 63 180 1.0 6.0 0.00 0.71 0.71 91 1000.2
20260507150110 63 90 1.0 6.0 0.00 0.71 0.71 92 999.7
20260507145548 63 113 0.0 6.0 0.00 0.71 0.71 92 999.5
20260507145037 62 203 2.0 6.0 0.00 0.71 0.71 93 1000.1
20260507144527 62 225 2.0 7.0 0.00 0.71 0.71 92 1000.2
20260507144017 62 203 1.0 8.0 0.01 0.71 0.71 92 1000.3
20260507143507 62 203 2.0 11.0 0.01 0.71 0.71 92 1000.2
20260507142957 62 225 3.0 11.0 0.01 0.71 0.71 92 999.9
20260507142446 62 270 4.0 9.0 0.01 0.71 0.71 92 1000.8
20260507141938 63 225 5.0 9.0 0.02 0.71 0.71 92 1000.8
20260507141426 63 248 2.0 11.0 0.02 0.71 0.71 93 1001.4
20260507140926 63 270 3.0 11.0 0.02 0.71 0.71 93 1001.2
20260507140416 63 113 6.0 11.0 0.04 0.71 0.71 93 1000.6
20260507135856 63 225 5.0 13.0 0.04 0.71 0.71 94 1000.2
20260507135345 63 248 5.0 14.0 0.04 0.71 0.71 95 1000.6
20260507134835 63 248 7.0 14.0 0.04 0.71 0.71 95 1000.4
20260507134326 63 158 4.0 11.0 0.04 0.70 0.70 96 1000.1
20260507133815 64 180 3.0 11.0 0.04 0.70 0.70 96 1000.4
20260507133305 64 270 3.0 13.0 0.04 0.70 0.70 96 1001.0
20260507132755 64 293 6.0 14.0 0.04 0.70 0.70 96 1000.8
20260507132245 64 135 6.0 14.0 0.04 0.70 0.70 96 998.8
20260507131736 64 180 4.0 16.0 0.02 0.69 0.69 97 997.8
20260507131225 64 113 7.0 16.0 0.02 0.69 0.69 97 997.2
20260507130715 64 225 4.0 13.0 0.02 0.69 0.69 97 998.5
20260507130204 64 293 3.0 13.0 0.01 0.67 0.67 97 1000.2
20260507125653 64 225 2.0 13.0 0.02 0.67 0.67 97 1000.8
20260507125144 64 248 4.0 9.0 0.04 0.67 0.67 97 1000.5
20260507124633 64 270 4.0 9.0 0.08 0.67 0.67 97 1000.6
20260507124124 64 270 4.0 6.0 0.09 0.66 0.66 97 1001.2
20260507123613 64 180 2.0 4.0 0.11 0.66 0.66 97 1001.1
20260507123104 64 248 4.0 4.0 0.12 0.66 0.66 97 1001.4
20260507122044 64 248 1.0 7.0 0.12 0.66 0.66 97 1000.0
20260507121045 64 180 5.0 9.0 0.14 0.66 0.66 97 999.2
20260507120000 64 293 1.0 6.0 0.15 0.66 0.66 97 1000.8
20260507113922 64 248 3.0 6.0 0.21 0.56 0.57 97 999.7
20260507113412 64 135 1.0 4.0 0.25 0.54 0.54 97 1000.1
20260507112902 64 135 0.0 4.0 0.25 0.54 0.54 97 1000.0
20260507112351 64 270 0.0 7.0 0.26 0.54 0.54 97 999.7
20260507111841 64 225 4.0 7.0 0.25 0.53 0.53 97 998.0
20260507111331 64 158 2.0 6.0 0.26 0.53 0.53 96 997.3
20260507110821 64 158 0.0 0.0 0.26 0.51 0.52 96 999.1
20260507110311 64 203 0.0 6.0 0.27 0.51 0.51 97 999.9
20260507105801 64 180 0.0 7.0 0.27 0.51 0.51 97 999.1
20260507105251 64 45 3.0 7.0 0.27 0.51 0.51 96 998.3
20260507104741 64 23 3.0 7.0 0.28 0.50 0.50 96 998.1
20260507103722 64 203 1.0 11.0 0.14 0.32 0.32 96 1000.0
20260507102150 64 45 2.0 4.0 0.12 0.28 0.28 96 997.4
20260507101643 64 248 0.0 7.0 0.12 0.28 0.28 96 997.2
20260507101129 64 68 2.0 7.0 0.09 0.25 0.25 96 997.0
20260507100619 64 23 2.0 6.0 0.11 0.25 0.25 96 997.8
20260507100123 64 0 1.0 6.0 0.09 0.24 0.24 96 997.5
20260507095559 64 225 2.0 6.0 0.09 0.24 0.24 96 995.8
20260507095050 64 203 2.0 2.0 0.09 0.22 0.22 96 996.5
20260507094535 64 45 0.0 2.0 0.09 0.21 0.21 96 997.1
20260507094029 64 90 2.0 4.0 0.08 0.19 0.19 96 996.9
20260507093519 64 180 2.0 8.0 0.07 0.17 0.17 96 997.1
20260507093008 64 180 1.0 8.0 0.08 0.17 0.17 96 997.0
20260507092458 64 113 2.0 8.0 0.09 0.17 0.17 96 996.2
20260507091948 64 180 2.0 8.0 0.09 0.17 0.17 96 996.5
20260507091438 64 270 2.0 8.0 0.12 0.17 0.17 96 997.3
20260507090928 64 45 3.0 4.0 0.11 0.14 0.14 96 997.6
20260507090419 64 90 2.0 6.0 0.12 0.14 0.14 95 998.1
20260507085907 64 158 0.0 6.0 0.12 0.14 0.14 95 998.5
20260507085357 64 158 3.0 7.0 0.11 0.13 0.13 95 997.8
20260507084847 64 248 3.0 7.0 0.09 0.12 0.12 95 997.5
20260507084337 64 293 2.0 7.0 0.12 0.12 0.12 95 997.5
20260507083840 65 248 2.0 13.0 0.09 0.09 0.09 95 997.7
20260507083317 65 248 4.0 15.0 0.08 0.08 0.08 94 997.9
20260507082807 65 203 7.0 15.0 0.07 0.07 0.07 94 997.8
20260507082257 65 135 5.0 14.0 0.07 0.07 0.07 93 998.3
20260507081237 66 270 6.0 20.0 0.04 0.04 0.04 91 998.9
20260507080216 72 225 8.0 17.0 0.02 0.02 0.02 89 997.9
20260507075706 74 248 2.0 6.0 0.02 0.02 0.02 91 997.4
20260507075155 74 203 0.0 6.0 0.02 0.02 0.02 88 997.9
20260507074135 75 180 2.0 7.0 0.00 0.00 0.00 85 997.7
20260507073626 76 248 2.0 4.0 0.00 0.00 0.00 84 997.6
20260507073115 76 225 2.0 7.0 0.00 0.00 0.00 83 997.8
20260507072604 76 248 2.0 7.0 0.00 0.00 0.00 83 998.2
20260507072055 77 248 2.0 6.0 0.00 0.00 0.00 81 998.0
20260507071544 77 113 1.0 7.0 0.00 0.00 0.00 81 998.1
20260507071025 77 248 2.0 7.0 0.00 0.00 0.00 81 998.3
20260507070524 77 248 0.0 4.0 0.00 0.00 0.00 81 997.9
20260507064953 77 158 0.0 4.0 0.00 0.00 0.00 80 998.4
20260507064444 77 338 0.0 4.0 0.00 0.00 0.00 80 998.6
20260507063424 77 270 1.0 4.0 0.00 0.00 0.00 80 998.8
20260507062914 77 90 1.0 4.0 0.00 0.00 0.00 81 998.8
20260507062403 77 90 0.0 7.0 0.00 0.00 0.00 80 998.7
20260507061343 76 23 2.0 4.0 0.00 0.00 0.00 81 998.8
20260507060833 76 0 0.0 4.0 0.00 0.00 0.00 80 998.6
20260507060323 77 315 0.0 2.0 0.00 0.00 0.00 80 998.7
20260507055812 77 0 1.0 4.0 0.00 0.00 0.00 80 999.4
20260507055305 77 45 0.0 4.0 0.00 0.00 0.00 80 999.1
20260507054242 76 338 1.0 4.0 0.00 0.00 0.00 80 999.1
20260507052712 76 225 0.0 2.0 0.00 0.00 0.00 81 999.7
20260507052202 75 270 0.0 2.0 0.00 0.00 0.00 82 999.7
20260507051651 75 293 0.0 2.0 0.00 0.00 0.00 82 999.7
20260507051142 75 180 0.0 2.0 0.00 0.00 0.00 82 999.7
20260507050631 75 180 0.0 4.0 0.00 0.00 0.00 82 999.2
20260507045611 75 315 1.0 4.0 0.00 0.00 0.00 82 999.4
20260507045100 75 45 1.0 4.0 0.00 0.00 0.00 82 999.2
20260507044550 75 45 1.0 4.0 0.00 0.00 0.00 82 999.3
20260507043529 75 68 1.0 6.0 0.00 0.00 0.00 82 999.2
20260507043020 75 23 2.0 4.0 0.00 0.00 0.00 82 999.3
20260507042511 75 68 1.0 4.0 0.00 0.00 0.00 83 999.3
20260507041959 75 0 1.0 6.0 0.00 0.00 0.00 82 999.5
20260507041449 75 68 0.0 6.0 0.00 0.00 0.00 82 999.4
20260507040430 75 45 2.0 4.0 0.00 0.00 0.00 81 999.9
20260507035919 75 0 2.0 4.0 0.00 0.00 0.00 81 1000.3
20260507035409 75 90 0.0 4.0 0.00 0.00 0.00 81 1000.6
20260507034349 75 338 1.0 4.0 0.00 0.00 0.00 81 1000.6
20260507033904 75 45 1.0 6.0 0.00 0.00 0.00 81 1000.7
20260507033330 75 23 0.0 6.0 0.00 0.00 0.00 81 1000.9
20260507032308 75 23 2.0 6.0 0.00 0.00 0.00 81 1000.9
20260507031811 76 45 2.0 6.0 0.00 0.00 0.00 81 1000.6
20260507031249 76 45 2.0 6.0 0.00 0.00 0.00 81 1000.8
20260507030738 76 338 2.0 6.0 0.00 0.00 0.00 81 1000.8
20260507030229 76 0 2.0 6.0 0.00 0.00 0.00 81 1000.9
20260507025719 76 23 1.0 7.0 0.00 0.00 0.00 80 1001.1
20260507025207 76 0 0.0 8.0 0.00 0.00 0.00 80 1000.8
20260507024657 76 23 2.0 8.0 0.00 0.00 0.00 79 1001.0
20260507024147 76 23 1.0 13.0 0.00 0.00 0.00 79 1001.3
20260507023636 76 23 2.0 13.0 0.00 0.00 0.00 79 1001.5
20260507021600 77 23 0.0 6.0 0.00 0.00 0.00 78 1001.5
20260507021046 77 68 2.0 6.0 0.00 0.00 0.00 78 1001.8
20260507020030 77 338 2.0 9.0 0.00 0.00 0.00 78 1002.0
20260507015516 77 23 0.0 4.0 0.00 0.00 0.00 78 1002.0
20260507015001 77 0 0.0 4.0 0.00 0.00 0.00 78 1002.0
20260507014456 77 23 2.0 4.0 0.00 0.00 0.00 78 1002.1
20260507013945 77 68 1.0 4.0 0.00 0.00 0.00 78 1002.3
20260507013435 77 68 0.0 4.0 0.00 0.00 0.00 78 1002.1
20260507012926 77 68 2.0 4.0 0.00 0.00 0.00 78 1002.2
20260507012414 77 68 1.0 4.0 0.00 0.00 0.00 79 1002.0
20260507010858 77 45 1.0 4.0 0.00 0.00 0.00 80 1002.1
20260507010334 76 45 2.0 4.0 0.00 0.00 0.00 80 1001.9
20260507005824 76 45 0.0 6.0 0.00 0.00 0.00 81 1002.2
20260507004804 76 45 1.0 6.0 0.00 0.00 0.00 82 1001.8
20260507004253 76 23 2.0 7.0 0.00 0.00 0.00 82 1001.7
20260507003743 76 45 2.0 9.0 0.00 0.00 0.00 82 1002.0
20260507003233 76 45 3.0 9.0 0.00 0.00 0.00 82 1001.8
20260507002724 76 45 3.0 7.0 0.00 0.00 0.00 82 1001.9
20260507002214 77 315 4.0 7.0 0.00 0.00 0.00 82 1002.0
20260507001702 77 23 2.0 6.0 0.00 0.00 0.00 82 1002.3
20260507001152 77 45 2.0 8.0 0.00 0.00 0.00 82 1002.4
20260507000655 77 23 3.0 8.0 0.00 0.00 0.00 82 1002.4
20260507000133 77 23 2.0 6.0 0.00 0.00 0.00 82 1002.8
20260506235113 77 68 2.0 4.0 0.00 0.00 0.00 82 1002.8
20260506234602 77 23 2.0 4.0 0.00 0.00 0.00 82 1002.7
20260506234052 77 23 2.0 4.0 0.00 0.00 0.00 82 1002.7
20260506233553 77 23 2.0 4.0 0.00 0.00 0.00 82 1002.7
20260506233028 77 23 0.0 4.0 0.00 0.00 0.00 82 1002.8
20260506232534 78 23 1.0 4.0 0.00 0.00 0.00 81 1002.8
20260506232015 78 23 2.0 4.0 0.00 0.00 0.00 81 1002.7
20260506231501 78 45 0.0 4.0 0.00 0.00 0.00 81 1002.7
20260506230954 78 68 0.0 4.0 0.00 0.00 0.00 80 1002.7
20260506225931 78 23 2.0 7.0 0.00 0.00 0.00 80 1003.0
20260506225421 79 0 2.0 7.0 0.00 0.00 0.00 79 1003.0
20260506224910 79 45 2.0 6.0 0.00 0.00 0.00 79 1003.1
20260506224400 79 0 2.0 7.0 0.00 0.00 0.00 79 1003.2
20260506223339 79 45 2.0 6.0 0.00 0.00 0.00 79 1003.4
20260506222320 79 0 1.0 4.0 0.00 0.01 0.00 78 1003.1
20260506221809 79 68 1.0 6.0 0.00 0.01 0.00 78 1003.2
20260506221300 79 45 3.0 6.0 0.00 0.01 0.00 78 1003.3
20260506220749 80 0 3.0 6.0 0.00 0.01 0.00 78 1003.3
20260506220239 80 315 2.0 7.0 0.00 0.01 0.00 78 1003.1
20260506215218 80 0 1.0 6.0 0.00 0.01 0.00 77 1003.0
20260506214158 80 45 2.0 7.0 0.00 0.01 0.00 76 1003.3
20260506213647 80 23 2.0 7.0 0.00 0.01 0.00 75 1003.1
20260506213139 81 23 1.0 7.0 0.00 0.01 0.00 75 1003.0
20260506212627 81 0 2.0 4.0 0.00 0.01 0.00 74 1003.3
20260506212119 81 23 2.0 4.0 0.00 0.01 0.00 74 1003.2
20260506211608 82 23 2.0 6.0 0.00 0.01 0.00 73 1003.2
20260506211057 82 338 2.0 6.0 0.00 0.01 0.00 72 1003.0
20260506210607 82 45 1.0 4.0 0.00 0.01 0.00 71 1003.4
20260506210037 82 0 1.0 4.0 0.00 0.01 0.00 71 1003.2
20260506205528 83 45 1.0 4.0 0.00 0.01 0.00 70 1003.4
20260506205018 83 68 2.0 6.0 0.00 0.01 0.00 69 1003.4
20260506204508 83 0 0.0 6.0 0.00 0.01 0.00 69 1003.3
20260506203957 83 338 3.0 6.0 0.00 0.01 0.00 68 1003.6
20260506203446 83 23 1.0 4.0 0.00 0.01 0.00 68 1003.4
20260506202936 84 248 1.0 6.0 0.00 0.01 0.00 67 1003.6
20260506201916 84 23 1.0 7.0 0.00 0.01 0.00 66 1003.3
20260506201407 84 68 2.0 6.0 0.00 0.01 0.00 66 1003.2
20260506200358 85 23 2.0 4.0 0.00 0.01 0.00 65 1003.2
20260506195326 85 23 3.0 6.0 0.00 0.01 0.00 64 1003.3
20260506194817 85 315 1.0 9.0 0.00 0.01 0.00 64 1003.4
20260506194305 85 338 2.0 9.0 0.00 0.01 0.00 63 1003.2
20260506193245 86 135 2.0 8.0 0.00 0.01 0.00 62 1003.4
20260506192735 86 0 1.0 17.0 0.00 0.01 0.00 61 1002.9
20260506192224 86 338 2.0 17.0 0.00 0.01 0.00 60 1003.2
20260506191715 87 203 2.0 8.0 0.00 0.01 0.00 60 1003.2
20260506191204 87 338 3.0 7.0 0.00 0.01 0.00 60 1003.1
20260506190706 87 23 2.0 6.0 0.00 0.01 0.00 61 1003.2
20260506190144 87 248 0.0 6.0 0.00 0.01 0.00 61 1003.1
20260506185634 86 315 2.0 9.0 0.00 0.01 0.00 62 1003.5
20260506185123 86 23 2.0 11.0 0.00 0.01 0.00 62 1003.7
20260506184614 87 23 3.0 11.0 0.00 0.01 0.00 61 1003.8
20260506184104 87 45 4.0 8.0 0.00 0.01 0.00 61 1003.8
20260506183553 87 180 2.0 7.0 0.00 0.01 0.00 60 1003.7
20260506183044 87 315 3.0 7.0 0.00 0.01 0.00 60 1003.8
20260506182533 87 248 3.0 7.0 0.00 0.01 0.00 59 1003.9
20260506181513 87 23 3.0 7.0 0.00 0.01 0.00 59 1003.6
20260506181006 88 23 2.0 6.0 0.00 0.01 0.00 59 1003.8
20260506180452 88 90 1.0 7.0 0.00 0.01 0.00 59 1004.3
20260506175942 87 338 2.0 13.0 0.00 0.01 0.00 58 1004.3
20260506175432 88 23 3.0 13.0 0.00 0.01 0.00 58 1004.2
20260506174922 89 315 3.0 11.0 0.00 0.01 0.00 57 1004.1
20260506174419 89 248 3.0 11.0 0.00 0.01 0.00 58 1004.2
20260506173901 89 270 2.0 11.0 0.00 0.01 0.00 58 1004.4
20260506173351 88 338 2.0 16.0 0.00 0.01 0.00 58 1004.3
20260506172841 89 23 2.0 16.0 0.00 0.01 0.00 59 1004.5
20260506171822 88 113 1.0 11.0 0.00 0.01 0.00 60 1004.3
20260506171312 88 45 4.0 13.0 0.00 0.01 0.00 60 1004.8
20260506170803 88 45 2.0 13.0 0.00 0.01 0.00 59 1004.8
20260506170250 88 45 4.0 9.0 0.00 0.01 0.00 60 1004.9
20260506165741 88 338 2.0 11.0 0.00 0.01 0.00 59 1004.8
20260506165230 88 270 4.0 14.0 0.00 0.01 0.00 60 1005.2
20260506164720 88 338 2.0 14.0 0.00 0.01 0.00 60 1005.3
20260506164211 87 338 3.0 13.0 0.00 0.01 0.00 60 1005.2
20260506163150 87 338 2.0 11.0 0.00 0.01 0.00 60 1005.5
20260506162639 87 23 4.0 9.0 0.00 0.01 0.00 60 1005.6
20260506162143 87 23 3.0 9.0 0.00 0.01 0.00 61 1005.7
20260506161623 87 315 3.0 9.0 0.00 0.01 0.00 61 1005.9
20260506161122 86 23 2.0 11.0 0.00 0.01 0.00 62 1005.9
20260506160601 86 0 2.0 11.0 0.00 0.01 0.00 63 1005.9